BHS203 MYNN-KFLL

Flight info

Callsign BHS203
Flight time 0h 40m
Altitude 19000
Route PEACH OLAHS3
Aircraft B737/M-SDE2E3FGHIRWXY/LB1

Departure

Time 2026-05-04 01:05
Airport Lynden Pindling International Airport (MYNN)

Arrival

Time 2026-05-04 01:45
Airport Fort Lauderdale Hollywood International Airport (KFLL)
Time Latitude Longitude Altitude Speed Heading
2026-05-04 00:38 25.04950 -77.46687 8 ft 0 kts 111°
2026-05-04 00:57 25.04953 -77.46697 8 ft 2 kts 104°
2026-05-04 00:57 25.04956 -77.46712 8 ft 2 kts 95°
2026-05-04 00:58 25.04956 -77.46729 8 ft 2 kts 84°
2026-05-04 00:58 25.04953 -77.46746 8 ft 2 kts 75°
2026-05-04 00:58 25.04948 -77.46761 8 ft 2 kts 64°
2026-05-04 00:58 25.04941 -77.46776 8 ft 2 kts 66°
2026-05-04 00:59 25.04935 -77.46791 8 ft 1 kts 85°
2026-05-04 00:59 25.04940 -77.46806 8 ft 2 kts 139°
2026-05-04 00:59 25.04954 -77.46812 8 ft 2 kts 190°
2026-05-04 00:59 25.04966 -77.46804 8 ft 0 kts 236°
2026-05-04 01:00 25.04969 -77.46799 8 ft 1 kts 245°
2026-05-04 01:00 25.04970 -77.46796 8 ft 0 kts 243°
2026-05-04 01:01 25.04969 -77.46799 8 ft 1 kts 243°
2026-05-04 01:02 25.04962 -77.46812 8 ft 2 kts 243°
2026-05-04 01:02 25.04954 -77.46830 8 ft 2 kts 243°
2026-05-04 01:02 25.04943 -77.46851 8 ft 3 kts 243°
2026-05-04 01:02 25.04932 -77.46878 8 ft 5 kts 248°
2026-05-04 01:03 25.04905 -77.46955 8 ft 11 kts 253°
2026-05-04 01:03 25.04943 -77.47044 8 ft 18 kts 315°
2026-05-04 01:03 25.05047 -77.47154 8 ft 20 kts 317°
2026-05-04 01:03 25.05147 -77.47264 8 ft 19 kts 314°
2026-05-04 01:04 25.05225 -77.47384 8 ft 18 kts 275°
2026-05-04 01:04 25.05187 -77.47516 8 ft 17 kts 225°
2026-05-04 01:04 25.04956 -77.47319 8 ft 79 kts 134°
2026-05-04 01:04 25.04414 -77.46709 9 ft 140 kts 134°
2026-05-04 01:05 25.03683 -77.45940 495 ft 145 kts 136°
2026-05-04 01:05 25.02978 -77.45207 1116 ft 144 kts 136°
2026-05-04 01:05 25.02360 -77.44312 1617 ft 152 kts 111°
2026-05-04 01:05 25.02296 -77.43127 2104 ft 166 kts 77°
2026-05-04 01:06 25.02813 -77.41947 2605 ft 183 kts 51°
2026-05-04 01:06 25.03885 -77.41097 3116 ft 202 kts 16°
2026-05-04 01:06 25.05304 -77.41165 3685 ft 215 kts 336°
2026-05-04 01:06 25.06575 -77.42105 4274 ft 229 kts 318°
2026-05-04 01:07 25.07801 -77.43314 4930 ft 243 kts 316°
2026-05-04 01:07 25.09086 -77.44590 5599 ft 256 kts 316°
2026-05-04 01:07 25.10456 -77.45918 6237 ft 270 kts 316°
2026-05-04 01:07 25.11895 -77.47296 7101 ft 275 kts 317°
2026-05-04 01:08 25.13328 -77.48667 7988 ft 277 kts 316°
2026-05-04 01:08 25.14777 -77.50059 8836 ft 280 kts 316°
2026-05-04 01:08 25.16251 -77.51478 9646 ft 285 kts 316°
2026-05-04 01:08 25.17740 -77.52912 10460 ft 290 kts 316°
2026-05-04 01:09 25.19287 -77.54406 10999 ft 304 kts 316°
2026-05-04 01:09 25.20933 -77.55997 11530 ft 319 kts 316°
2026-05-04 01:09 25.22613 -77.57618 12201 ft 327 kts 316°
2026-05-04 01:09 25.24339 -77.59280 13073 ft 329 kts 316°
2026-05-04 01:10 25.26073 -77.60950 13871 ft 334 kts 315°
2026-05-04 01:10 25.27812 -77.62627 14680 ft 337 kts 315°
2026-05-04 01:10 25.29584 -77.64338 15493 ft 340 kts 315°
2026-05-04 01:10 25.31364 -77.66058 16278 ft 344 kts 314°
2026-05-04 01:11 25.33180 -77.67813 17047 ft 348 kts 314°
2026-05-04 01:11 25.35016 -77.69589 17794 ft 351 kts 314°
2026-05-04 01:11 25.36844 -77.71356 18511 ft 355 kts 313°
2026-05-04 01:11 25.38712 -77.73166 18891 ft 360 kts 314°
2026-05-04 01:12 25.40593 -77.75026 18992 ft 359 kts 310°
2026-05-04 01:12 25.42266 -77.77130 19011 ft 371 kts 301°
2026-05-04 01:12 25.43463 -77.79663 19014 ft 383 kts 287°
2026-05-04 01:12 25.44249 -77.82552 19010 ft 398 kts 282°
2026-05-04 01:13 25.44922 -77.85571 19008 ft 410 kts 281°
2026-05-04 01:13 25.45571 -77.88676 19005 ft 416 kts 280°
2026-05-04 01:13 25.46218 -77.91782 19005 ft 415 kts 280°
2026-05-04 01:13 25.46866 -77.94875 19010 ft 415 kts 281°
2026-05-04 01:14 25.47528 -77.97987 19007 ft 415 kts 281°
2026-05-04 01:14 25.48186 -78.01049 19010 ft 414 kts 281°
2026-05-04 01:14 25.48857 -78.04147 19001 ft 414 kts 281°
2026-05-04 01:14 25.49536 -78.07272 19006 ft 417 kts 281°
2026-05-04 01:15 25.50212 -78.10381 19009 ft 413 kts 281°
2026-05-04 01:15 25.50884 -78.13469 19004 ft 414 kts 281°
2026-05-04 01:15 25.51550 -78.16530 19005 ft 416 kts 281°
2026-05-04 01:15 25.52229 -78.19661 19004 ft 414 kts 281°
2026-05-04 01:16 25.52894 -78.22729 19006 ft 413 kts 281°
2026-05-04 01:16 25.53569 -78.25843 19006 ft 415 kts 281°
2026-05-04 01:16 25.54238 -78.28916 19001 ft 414 kts 281°
2026-05-04 01:16 25.54924 -78.32055 19008 ft 414 kts 281°
2026-05-04 01:17 25.55593 -78.35116 19007 ft 415 kts 281°
2026-05-04 01:17 25.56271 -78.38214 19004 ft 413 kts 281°
2026-05-04 01:17 25.56945 -78.41300 19006 ft 415 kts 281°
2026-05-04 01:17 25.57623 -78.44411 19001 ft 412 kts 281°
2026-05-04 01:18 25.58298 -78.47517 19003 ft 414 kts 281°
2026-05-04 01:18 25.58964 -78.50583 19004 ft 415 kts 281°
2026-05-04 01:18 25.59641 -78.53702 19005 ft 413 kts 281°
2026-05-04 01:18 25.60302 -78.56755 19005 ft 413 kts 281°
2026-05-04 01:19 25.60978 -78.59879 19000 ft 413 kts 281°
2026-05-04 01:19 25.61641 -78.62946 19006 ft 414 kts 281°
2026-05-04 01:19 25.62305 -78.66022 19005 ft 413 kts 281°
2026-05-04 01:19 25.62977 -78.69138 18999 ft 413 kts 281°
2026-05-04 01:20 25.63628 -78.72150 19001 ft 394 kts 281°
2026-05-04 01:20 25.64249 -78.75017 19000 ft 373 kts 280°
2026-05-04 01:20 25.64836 -78.77725 18999 ft 353 kts 280°
2026-05-04 01:20 25.65394 -78.80315 19003 ft 335 kts 280°
2026-05-04 01:21 25.65920 -78.82765 19001 ft 327 kts 280°
2026-05-04 01:21 25.66479 -78.85234 19001 ft 331 kts 281°
2026-05-04 01:21 25.67067 -78.87702 18951 ft 335 kts 282°
2026-05-04 01:21 25.67669 -78.90195 18638 ft 339 kts 282°
2026-05-04 01:22 25.68270 -78.92680 18373 ft 330 kts 282°
2026-05-04 01:22 25.68855 -78.95120 18004 ft 328 kts 281°
2026-05-04 01:22 25.69437 -78.97585 17544 ft 334 kts 282°
2026-05-04 01:22 25.70021 -79.00063 17069 ft 331 kts 281°
2026-05-04 01:23 25.70595 -79.02507 16574 ft 328 kts 282°
2026-05-04 01:23 25.71168 -79.04949 16107 ft 325 kts 281°
2026-05-04 01:23 25.71730 -79.07348 15646 ft 322 kts 282°
2026-05-04 01:23 25.72290 -79.09742 15197 ft 318 kts 282°
2026-05-04 01:24 25.72838 -79.12094 14754 ft 318 kts 281°
2026-05-04 01:24 25.73393 -79.14477 14299 ft 323 kts 282°
2026-05-04 01:24 25.73952 -79.16878 13833 ft 320 kts 282°
2026-05-04 01:24 25.74506 -79.19250 13380 ft 317 kts 282°
2026-05-04 01:25 25.75055 -79.21606 12932 ft 314 kts 282°
2026-05-04 01:25 25.75593 -79.23915 12483 ft 311 kts 282°
2026-05-04 01:25 25.76134 -79.26238 12035 ft 309 kts 282°
2026-05-04 01:25 25.76668 -79.28537 11591 ft 307 kts 282°
2026-05-04 01:26 25.77198 -79.30823 11151 ft 309 kts 282°
2026-05-04 01:26 25.77736 -79.33147 10704 ft 310 kts 282°
2026-05-04 01:26 25.78270 -79.35446 10336 ft 304 kts 282°
2026-05-04 01:26 25.78786 -79.37663 10164 ft 292 kts 283°
2026-05-04 01:27 25.79280 -79.39786 10064 ft 279 kts 282°
2026-05-04 01:27 25.79753 -79.41827 9794 ft 273 kts 283°
2026-05-04 01:27 25.80224 -79.43874 9419 ft 271 kts 283°
2026-05-04 01:27 25.80686 -79.45879 9086 ft 268 kts 283°
2026-05-04 01:28 25.81146 -79.47879 8751 ft 266 kts 283°
2026-05-04 01:28 25.81597 -79.49835 8424 ft 263 kts 283°
2026-05-04 01:28 25.82050 -79.51798 8096 ft 261 kts 283°
2026-05-04 01:28 25.82496 -79.53735 7771 ft 258 kts 283°
2026-05-04 01:29 25.82937 -79.55647 7454 ft 256 kts 283°
2026-05-04 01:29 25.83379 -79.57563 7133 ft 253 kts 283°
2026-05-04 01:29 25.83817 -79.59450 6825 ft 251 kts 284°
2026-05-04 01:29 25.84369 -79.61256 6506 ft 250 kts 290°
2026-05-04 01:30 25.85045 -79.63038 6197 ft 248 kts 292°
2026-05-04 01:30 25.85753 -79.64809 5968 ft 251 kts 293°
2026-05-04 01:30 25.86494 -79.66546 5961 ft 253 kts 294°
2026-05-04 01:30 25.87249 -79.68259 5960 ft 255 kts 294°
2026-05-04 01:31 25.88029 -79.70041 5958 ft 254 kts 294°
2026-05-04 01:31 25.88805 -79.71835 5960 ft 256 kts 294°
2026-05-04 01:31 25.89574 -79.73622 5961 ft 253 kts 294°
2026-05-04 01:31 25.90327 -79.75385 5959 ft 256 kts 294°
2026-05-04 01:32 25.91089 -79.77174 5958 ft 253 kts 294°
2026-05-04 01:32 25.91843 -79.78943 5961 ft 255 kts 294°
2026-05-04 01:32 25.92594 -79.80702 5961 ft 254 kts 294°
2026-05-04 01:32 25.93355 -79.82481 5963 ft 254 kts 294°
2026-05-04 01:33 25.94113 -79.84259 5961 ft 253 kts 294°
2026-05-04 01:33 25.94869 -79.86040 5961 ft 256 kts 294°
2026-05-04 01:33 25.95625 -79.87814 5965 ft 252 kts 294°
2026-05-04 01:33 25.96374 -79.89563 5966 ft 255 kts 294°
2026-05-04 01:34 25.97139 -79.91351 5970 ft 254 kts 294°
2026-05-04 01:34 25.97893 -79.93117 5967 ft 252 kts 294°
2026-05-04 01:34 25.98665 -79.94887 5967 ft 255 kts 297°
2026-05-04 01:34 25.99649 -79.96496 5967 ft 255 kts 308°
2026-05-04 01:35 26.00853 -79.97963 5967 ft 256 kts 311°
2026-05-04 01:35 26.02095 -79.99396 5971 ft 255 kts 311°
2026-05-04 01:35 26.03312 -80.00839 5970 ft 255 kts 310°
2026-05-04 01:35 26.04510 -80.02296 5970 ft 256 kts 310°
2026-05-04 01:36 26.05704 -80.03770 5967 ft 255 kts 309°
2026-05-04 01:36 26.06877 -80.05222 5968 ft 255 kts 309°
2026-05-04 01:36 26.08066 -80.06694 5970 ft 254 kts 309°
2026-05-04 01:36 26.09264 -80.08176 5972 ft 256 kts 309°
2026-05-04 01:37 26.10463 -80.09660 5787 ft 257 kts 309°
2026-05-04 01:37 26.11642 -80.11121 5521 ft 253 kts 310°
2026-05-04 01:37 26.12824 -80.12584 5257 ft 254 kts 310°
2026-05-04 01:37 26.13997 -80.14055 4991 ft 252 kts 308°
2026-05-04 01:38 26.14923 -80.15680 4724 ft 248 kts 290°
2026-05-04 01:38 26.15194 -80.17551 4472 ft 243 kts 270°
2026-05-04 01:38 26.15149 -80.19432 4128 ft 243 kts 269°
2026-05-04 01:38 26.15101 -80.21314 3766 ft 244 kts 270°
2026-05-04 01:39 26.15090 -80.23213 3447 ft 243 kts 271°
2026-05-04 01:39 26.15097 -80.25083 3202 ft 239 kts 271°
2026-05-04 01:39 26.15106 -80.26917 3007 ft 234 kts 271°
2026-05-04 01:39 26.15112 -80.28680 2971 ft 221 kts 271°
2026-05-04 01:40 26.15116 -80.30343 2971 ft 210 kts 272°
2026-05-04 01:40 26.15080 -80.31953 2972 ft 209 kts 262°
2026-05-04 01:40 26.14466 -80.33431 2971 ft 214 kts 229°
2026-05-04 01:40 26.13191 -80.34277 2971 ft 216 kts 193°
2026-05-04 01:41 26.11708 -80.34174 2972 ft 219 kts 159°
2026-05-04 01:41 26.10413 -80.33299 2974 ft 217 kts 143°
2026-05-04 01:41 26.09198 -80.32271 2971 ft 216 kts 142°
2026-05-04 01:41 26.08012 -80.31266 2965 ft 211 kts 140°
2026-05-04 01:42 26.07147 -80.30046 2927 ft 199 kts 109°
2026-05-04 01:42 26.07058 -80.28560 2680 ft 193 kts 73°
2026-05-04 01:42 26.07434 -80.27132 2213 ft 194 kts 77°
2026-05-04 01:42 26.07551 -80.25678 1959 ft 181 kts 85°
2026-05-04 01:43 26.07659 -80.24323 1687 ft 170 kts 80°
2026-05-04 01:43 26.07758 -80.23051 1376 ft 162 kts 86°
2026-05-04 01:43 26.07727 -80.21816 1042 ft 157 kts 89°
2026-05-04 01:43 26.07705 -80.20633 724 ft 151 kts 88°
2026-05-04 01:44 26.07703 -80.19531 542 ft 138 kts 88°
2026-05-04 01:44 26.07708 -80.18501 399 ft 127 kts 87°
2026-05-04 01:44 26.07712 -80.17447 268 ft 142 kts 89°
2026-05-04 01:44 26.07694 -80.16379 34 ft 133 kts 89°
2026-05-04 01:45 26.07689 -80.15453 9 ft 93 kts 89°
2026-05-04 01:45 26.07687 -80.14937 9 ft 45 kts 91°
2026-05-04 01:45 26.07613 -80.14562 9 ft 15 kts 119°
2026-05-04 01:46 26.07565 -80.14452 9 ft 15 kts 103°
2026-05-04 01:46 26.07557 -80.14368 9 ft 0 kts 91°
2026-05-04 01:46 26.07557 -80.14359 9 ft 2 kts 91°
2026-05-04 01:47 26.07556 -80.14304 9 ft 9 kts 91°
2026-05-04 01:47 26.07556 -80.14214 9 ft 17 kts 88°
2026-05-04 01:47 26.07559 -80.14072 9 ft 18 kts 92°
2026-05-04 01:47 26.07519 -80.13956 9 ft 15 kts 131°
2026-05-04 01:48 26.07469 -80.13854 9 ft 15 kts 97°
2026-05-04 01:48 26.07458 -80.13744 9 ft 11 kts 121°
2026-05-04 01:48 26.07417 -80.13728 9 ft 5 kts 186°
2026-05-04 01:48 26.07390 -80.13747 9 ft 4 kts 238°
2026-05-04 01:49 26.07377 -80.13777 9 ft 4 kts 248°
2026-05-04 01:49 26.07370 -80.13794 9 ft 0 kts 245°